GW2445 Weather Reports


Display with metric or nautical units.
time (UTC)temp
F
wind
direction
speed
MPH
gust
MPH
rain 1hr
in
rain 24hr
in
rain mn
in
humidity
%
barometer
mb
20240417185231 73 155 0.0 7.0 0.00 0.04 0.04 67 1006.4
20240417184725 72 204 0.0 4.0 0.00 0.04 0.04 71 1006.5
20240417184223 71 143 1.0 6.0 0.00 0.04 0.04 70 1006.7
20240417183719 71 188 1.0 6.0 0.00 0.04 0.04 69 1006.9
20240417183202 71 140 1.0 6.0 0.00 0.04 0.04 68 1007.1
20240417182701 71 205 1.0 7.0 0.00 0.04 0.04 68 1007.2
20240417182156 70 190 1.0 7.0 0.00 0.04 0.04 69 1007.3
20240417181657 70 101 0.0 5.0 0.00 0.04 0.04 68 1007.5
20240417181155 71 146 0.0 4.0 0.00 0.04 0.04 67 1007.5
20240417180648 72 101 0.0 4.0 0.00 0.04 0.04 65 1007.4
20240417180142 73 177 1.0 6.0 0.00 0.04 0.04 64 1007.6
20240417175636 73 80 2.0 9.0 0.00 0.04 0.04 63 1007.7
20240417175132 74 81 2.0 9.0 0.00 0.04 0.04 65 1007.8
20240417174628 73 109 3.0 13.0 0.00 0.04 0.04 68 1007.9
20240417174126 73 211 3.0 13.0 0.00 0.04 0.04 65 1008.0
20240417173845 72 146 2.0 12.0 0.00 0.04 0.04 66 1008.1
20240417173124 72 322 2.0 12.0 0.00 0.04 0.04 65 1008.1
20240417172606 72 236 1.0 7.0 0.00 0.04 0.04 67 1008.1
20240417172104 72 184 1.0 5.0 0.00 0.04 0.04 70 1008.1
20240417171602 71 169 1.0 10.0 0.00 0.04 0.04 71 1008.4
20240417171041 70 81 1.0 10.0 0.00 0.04 0.04 69 1008.4
20240417170540 69 181 1.0 5.0 0.00 0.04 0.04 74 1008.6
20240417170031 68 121 0.0 7.0 0.00 0.04 0.04 77 1008.6
20240417165529 67 292 0.0 7.0 0.00 0.04 0.04 77 1008.6
20240417165253 66 86 0.0 1.0 0.00 0.04 0.04 77 1008.8
20240417164525 65 184 0.0 2.0 0.00 0.04 0.04 79 1008.8
20240417164026 64 136 0.0 4.0 0.00 0.04 0.04 79 1009.0
20240417163523 64 170 0.0 5.0 0.00 0.04 0.04 79 1009.1
20240417163019 64 175 0.0 6.0 0.00 0.04 0.04 78 1009.1
20240417162443 64 102 1.0 7.0 0.00 0.04 0.04 78 1009.1
20240417161937 64 162 0.0 7.0 0.00 0.04 0.04 78 1009.0
20240417161436 64 131 0.0 2.0 0.00 0.04 0.04 79 1009.0
20240417160932 63 113 0.0 3.0 0.00 0.04 0.04 78 1009.2
20240417160430 63 126 0.0 3.0 0.00 0.04 0.04 78 1009.1
20240417155923 63 130 0.0 2.0 0.00 0.04 0.04 78 1009.2
20240417155632 63 90 0.0 4.0 0.00 0.04 0.04 78 1009.3
20240417154857 63 108 0.0 10.0 0.00 0.04 0.04 80 1009.2
20240417154355 63 130 0.0 10.0 0.00 0.04 0.04 79 1009.5
20240417153850 63 96 0.0 4.0 0.00 0.04 0.04 80 1009.9
20240417153551 62 126 0.0 4.0 0.01 0.04 0.04 79 1010.0
20240417152824 63 137 0.0 5.0 0.01 0.04 0.04 79 1010.2
20240417152320 62 129 0.0 5.0 0.01 0.04 0.04 82 1010.1
20240417151824 62 160 0.0 4.0 0.01 0.04 0.04 81 1010.1
20240417151245 61 177 0.0 7.0 0.01 0.04 0.04 83 1010.2
20240417150742 60 129 1.0 7.0 0.01 0.04 0.04 85 1010.5
20240417150234 60 142 1.0 7.0 0.01 0.04 0.04 83 1010.6
20240417145731 59 112 0.0 4.0 0.01 0.04 0.04 84 1010.8
20240417145227 59 153 0.0 3.0 0.02 0.04 0.04 84 1011.0
20240417144725 59 103 0.0 4.0 0.02 0.04 0.04 83 1011.0
20240417144222 59 147 0.0 4.0 0.02 0.04 0.04 83 1011.2
20240417143701 59 172 1.0 5.0 0.02 0.04 0.04 83 1011.4
20240417143155 58 172 1.0 5.0 0.01 0.03 0.03 82 1011.4
20240417142643 58 161 1.0 5.0 0.01 0.03 0.03 81 1011.5
20240417142140 58 155 1.0 5.0 0.01 0.03 0.03 81 1011.2
20240417141636 58 186 0.0 3.0 0.01 0.03 0.03 81 1011.2
20240417141136 58 198 0.0 3.0 0.01 0.03 0.03 81 1011.0
20240417140624 58 117 0.0 2.0 0.01 0.03 0.03 82 1011.2
20240417140122 58 130 0.0 2.0 0.01 0.03 0.03 82 1011.4
20240417135621 58 134 0.0 2.0 0.01 0.03 0.03 81 1011.4
20240417135340 58 132 0.0 4.0 0.00 0.02 0.02 80 1011.5
20240417134616 58 159 1.0 6.0 0.00 0.02 0.02 79 1011.5
20240417134116 58 198 1.0 6.0 0.00 0.02 0.02 78 1011.4
20240417133612 58 163 0.0 3.0 0.00 0.02 0.02 78 1011.6
20240417133337 58 71 0.0 3.0 0.00 0.02 0.02 77 1011.5
20240417132827 58 184 1.0 6.0 0.00 0.02 0.02 76 1011.6
20240417132109 58 126 0.0 6.0 0.00 0.02 0.02 76 1011.8
20240417131604 58 167 0.0 3.0 0.00 0.02 0.02 76 1011.9
20240417131100 58 148 0.0 6.0 0.00 0.02 0.02 76 1011.8
20240417130824 57 114 0.0 6.0 0.00 0.02 0.02 77 1011.6
20240417130307 57 108 0.0 3.0 0.00 0.02 0.02 79 1011.4
20240417125529 56 138 0.0 3.0 0.00 0.02 0.02 81 1011.3
20240417125025 55 164 0.0 5.0 0.00 0.02 0.02 84 1011.4
20240417124742 55 164 0.0 5.0 0.00 0.02 0.02 86 1011.1
20240417124021 54 355 0.0 0.0 0.00 0.02 0.02 89 1011.2
20240417123519 54 0 0.0 0.0 0.00 0.02 0.02 89 1011.3
20240417123008 54 0 0.0 0.0 0.01 0.02 0.02 89 1011.3
20240417122508 53 295 0.0 0.0 0.01 0.02 0.02 90 1011.4
20240417121943 53 295 0.0 1.0 0.01 0.02 0.02 90 1011.7
20240417121435 53 295 0.0 1.0 0.01 0.02 0.02 90 1011.7
20240417120934 53 295 0.0 0.0 0.01 0.02 0.02 90 1012.0
20240417120655 53 295 0.0 0.0 0.01 0.02 0.02 90 1012.4
20240417115925 53 295 0.0 0.0 0.01 0.02 0.02 89 1012.3
20240417115419 53 295 0.0 0.0 0.01 0.02 0.02 88 1012.6
20240417114919 53 295 0.0 0.0 0.02 0.02 0.02 87 1012.7
20240417114401 53 295 0.0 0.0 0.02 0.02 0.02 86 1012.7
20240417113854 53 295 0.0 0.0 0.02 0.02 0.02 85 1012.9
20240417113352 53 295 0.0 3.0 0.01 0.01 0.01 83 1012.9
20240417112828 53 295 0.0 3.0 0.01 0.01 0.01 81 1012.8
20240417112322 54 291 0.0 2.0 0.01 0.01 0.01 83 1013.1
20240417111814 54 291 0.0 2.0 0.01 0.01 0.01 83 1012.8
20240417111247 55 291 0.0 0.0 0.01 0.01 0.01 81 1012.3
20240417110740 55 291 0.0 1.0 0.01 0.01 0.01 79 1012.3
20240417110223 55 291 1.0 3.0 0.01 0.01 0.01 77 1012.2
20240417105720 56 275 1.0 5.0 0.01 0.01 0.01 74 1012.1
20240417105440 57 84 0.0 5.0 0.00 0.00 0.00 69 1011.8
20240417104719 58 289 1.0 5.0 0.00 0.00 0.00 64 1012.2
20240417104210 59 319 1.0 7.0 0.00 0.00 0.00 58 1011.9
20240417103708 59 59 1.0 7.0 0.00 0.00 0.00 55 1011.7
20240417103205 59 181 1.0 7.0 0.00 0.00 0.00 56 1011.0
20240417102701 59 193 2.0 7.0 0.00 0.00 0.00 54 1010.8
20240417102159 59 117 1.0 7.0 0.00 0.00 0.00 54 1010.9
20240417101647 59 82 1.0 7.0 0.00 0.00 0.00 54 1011.1
20240417101144 58 57 0.0 5.0 0.00 0.00 0.00 54 1010.8
20240417100634 58 156 0.0 5.0 0.00 0.00 0.00 53 1010.7
20240417100131 58 100 0.0 4.0 0.00 0.00 0.00 53 1010.7
20240417095628 58 106 0.0 0.0 0.00 0.00 0.00 53 1010.9
20240417095130 58 115 0.0 2.0 0.00 0.00 0.00 52 1011.1
20240417094627 58 84 1.0 4.0 0.00 0.00 0.00 52 1011.4
20240417094122 58 94 0.0 4.0 0.00 0.00 0.00 52 1011.4
20240417093843 58 89 0.0 1.0 0.00 0.00 0.00 55 1011.7
20240417093119 58 98 0.0 1.0 0.00 0.00 0.00 54 1012.2
20240417092603 58 227 0.0 0.0 0.00 0.00 0.00 52 1012.6
20240417092100 59 227 1.0 3.0 0.00 0.00 0.00 51 1013.1
20240417091533 58 207 2.0 5.0 0.00 0.00 0.00 49 1013.3
20240417091034 59 305 2.0 5.0 0.00 0.00 0.00 50 1012.9
20240417090533 59 262 1.0 4.0 0.00 0.00 0.00 49 1012.5
20240417090252 59 260 2.0 9.0 0.00 0.00 0.00 48 1012.5
20240417085526 60 259 2.0 9.0 0.00 0.00 0.00 47 1012.0
20240417085023 60 244 1.0 4.0 0.00 0.00 0.00 46 1011.6
20240417084520 60 51 1.0 5.0 0.00 0.00 0.00 46 1011.3
20240417084013 59 69 1.0 5.0 0.00 0.00 0.00 47 1011.2
20240417083741 59 126 1.0 6.0 0.00 0.00 0.00 47 1011.1
20240417083001 59 111 1.0 6.0 0.00 0.00 0.00 47 1011.2
20240417082455 59 68 1.0 5.0 0.00 0.00 0.00 48 1011.2
20240417081951 58 154 1.0 5.0 0.00 0.00 0.00 48 1011.2
20240417081452 58 69 0.0 4.0 0.00 0.00 0.00 49 1011.4
20240417080943 57 59 0.0 5.0 0.00 0.00 0.00 51 1011.7
20240417080423 57 59 0.0 5.0 0.00 0.00 0.00 50 1011.8
20240417075919 57 64 0.0 0.0 0.00 0.00 0.00 50 1012.0
20240417075416 57 64 0.0 3.0 0.00 0.00 0.00 50 1012.1
20240417074849 57 65 0.0 3.0 0.00 0.00 0.00 49 1012.1
20240417074346 58 61 0.0 3.0 0.00 0.00 0.00 49 1012.2
20240417073840 58 30 0.0 4.0 0.00 0.00 0.00 48 1012.3
20240417073320 58 59 0.0 4.0 0.00 0.00 0.00 48 1012.3
20240417072819 58 61 0.0 3.0 0.00 0.00 0.00 49 1012.3
20240417072306 58 72 1.0 3.0 0.00 0.00 0.00 48 1012.3
20240417071805 58 92 0.0 5.0 0.00 0.00 0.00 48 1012.2
20240417071251 58 30 0.0 2.0 0.00 0.00 0.00 48 1012.3
20240417070745 58 51 0.0 2.0 0.00 0.00 0.00 48 1012.3
20240417070247 58 56 0.0 5.0 0.00 0.00 0.00 48 1012.4
20240417065740 58 41 0.0 5.0 0.00 0.00 0.00 48 1012.4
20240417065234 58 90 0.0 4.0 0.00 0.00 0.00 48 1012.6
20240417064724 58 34 1.0 2.0 0.00 0.00 0.00 48 1012.5
20240417063933 58 59 0.0 4.0 0.00 0.00 0.00 48 1012.4
20240417063207 57 82 0.0 3.0 0.00 0.00 0.00 50 1012.5
20240417062659 57 64 0.0 2.0 0.00 0.00 0.00 51 1012.8
20240417062145 56 63 1.0 4.0 0.00 0.00 0.00 52 1013.0
20240417061634 55 58 1.0 4.0 0.00 0.00 0.00 54 1012.9
20240417061349 54 55 1.0 5.0 0.00 0.00 0.00 55 1013.0
20240417060627 53 82 0.0 5.0 0.00 0.00 0.00 58 1013.0
20240417060125 52 63 0.0 0.0 0.00 0.00 0.00 62 1013.3
20240417055621 51 63 0.0 0.0 0.00 0.00 0.00 63 1013.4
20240417055119 51 63 0.0 0.0 0.00 0.00 0.00 63 1013.5
20240417054619 51 63 0.0 0.0 0.00 0.00 0.00 61 1013.7
20240417054116 52 63 0.0 0.0 0.00 0.00 0.00 60 1013.8
20240417053541 52 63 0.0 0.0 0.00 0.00 0.00 60 1013.8
20240417053250 53 63 0.0 0.0 0.00 0.00 0.00 58 1013.9
20240417052526 53 63 0.0 0.0 0.00 0.00 0.00 57 1014.0
20240417052025 53 63 0.0 0.0 0.00 0.00 0.00 56 1014.1
20240417051521 53 63 0.0 2.0 0.00 0.00 0.00 55 1014.2
20240417051018 54 63 1.0 5.0 0.00 0.00 0.00 55 1013.9
20240417050514 54 64 1.0 5.0 0.00 0.00 0.00 55 1013.9
20240417045950 53 15 1.0 5.0 0.00 0.00 0.00 55 1014.1
20240417045447 53 70 1.0 5.0 0.00 0.00 0.00 56 1014.2
20240417044947 53 46 1.0 4.0 0.00 0.00 0.00 56 1014.2
20240417044704 53 65 0.0 4.0 0.00 0.00 0.00 57 1014.5
20240417043920 52 53 0.0 4.0 0.00 0.00 0.00 58 1014.8
20240417043414 52 57 0.0 1.0 0.00 0.00 0.00 61 1014.8
20240417042905 52 39 0.0 2.0 0.00 0.00 0.00 60 1014.9
20240417042352 52 42 0.0 0.0 0.00 0.00 0.00 62 1015.0
20240417041841 52 42 0.0 0.0 0.00 0.00 0.00 61 1015.0
20240417041332 52 42 0.0 0.0 0.00 0.00 0.00 61 1015.3
20240417035923 52 42 0.0 0.0 0.00 0.00 0.00 61 1015.3
20240417035407 52 42 0.0 2.0 0.00 0.00 0.00 62 1015.3
20240417034857 52 42 0.0 2.0 0.00 0.00 0.00 61 1015.3
20240417034352 52 43 0.0 0.0 0.00 0.00 0.00 62 1015.3
20240417033842 52 42 0.0 0.0 0.00 0.00 0.00 62 1015.3
20240417033344 52 42 0.0 1.0 0.00 0.00 0.00 61 1015.3
20240417032845 52 42 0.0 1.0 0.00 0.00 0.00 61 1015.3
20240417032324 52 43 0.0 0.0 0.00 0.00 0.00 62 1015.3
20240417032033 52 43 0.0 0.0 0.00 0.00 0.00 63 1015.4
20240417031257 52 43 0.0 0.0 0.00 0.00 0.00 62 1015.2
20240417030756 52 44 0.0 0.0 0.00 0.00 0.00 62 1015.2
20240417030245 51 44 0.0 0.0 0.00 0.00 0.00 63 1015.2
20240417030013 51 44 0.0 0.0 0.00 0.00 0.00 63 1015.3
20240417025238 51 44 0.0 0.0 0.00 0.00 0.00 64 1015.5
20240417024725 51 44 0.0 0.0 0.00 0.00 0.00 66 1015.5
20240417024221 51 44 0.0 0.0 0.00 0.00 0.00 65 1015.8
20240417023943 51 44 0.0 0.0 0.00 0.00 0.00 65 1015.9
20240417023212 51 44 0.0 0.0 0.00 0.00 0.00 65 1016.0
20240417022700 52 44 0.0 0.0 0.00 0.00 0.00 63 1016.2
20240417022157 51 44 0.0 0.0 0.00 0.00 0.00 63 1016.3
20240417021643 52 44 0.0 0.0 0.00 0.00 0.00 64 1016.4
20240417021127 52 44 0.0 0.0 0.00 0.00 0.00 63 1016.6
20240417020618 52 44 0.0 0.0 0.00 0.00 0.00 62 1016.7
20240417015552 53 44 0.0 0.0 0.00 0.00 0.00 62 1016.7
20240417015022 53 44 0.0 0.0 0.00 0.00 0.00 60 1016.8
20240417014515 53 44 0.0 0.0 0.00 0.00 0.00 60 1016.8
20240417013952 54 44 0.0 0.0 0.00 0.00 0.00 58 1016.9
20240417013432 54 44 0.0 0.0 0.00 0.00 0.00 57 1016.9
20240417012930 55 44 0.0 2.0 0.00 0.00 0.00 56 1016.9
20240417012414 55 44 0.0 2.0 0.00 0.00 0.00 56 1017.2
20240417012121 55 47 0.0 2.0 0.00 0.00 0.00 55 1017.1
20240417011336 56 47 0.0 2.0 0.00 0.00 0.00 54 1017.0
20240417010331 56 73 0.0 2.0 0.00 0.00 0.00 53 1017.0
20240417005824 56 79 0.0 3.0 0.00 0.00 0.00 52 1017.3
20240417005324 56 45 0.0 3.0 0.00 0.00 0.00 52 1017.1
20240417004822 56 53 0.0 0.0 0.00 0.00 0.00 52 1017.0
20240417004322 57 71 0.0 2.0 0.00 0.00 0.00 51 1017.0
20240417004033 57 40 0.0 2.0 0.00 0.00 0.00 51 1016.8
20240417003308 57 77 0.0 2.0 0.00 0.00 0.00 50 1016.8
20240417003032 57 63 0.0 2.0 0.00 0.00 0.00 49 1017.0
20240417002257 58 61 0.0 0.0 0.00 0.00 0.00 49 1017.0
20240417001758 58 80 0.0 1.0 0.00 0.00 0.00 49 1017.0
20240417001219 58 48 1.0 4.0 0.00 0.00 0.00 48 1017.0
20240417000713 59 76 1.0 6.0 0.00 0.00 0.00 48 1017.0
20240417000143 59 74 1.0 6.0 0.00 0.00 0.00 48 1017.0
20240416235638 59 42 0.0 3.0 0.00 0.00 0.00 48 1017.3
20240416235131 59 46 0.0 3.0 0.00 0.00 0.00 47 1017.3
20240416234637 60 49 0.0 4.0 0.00 0.00 0.00 47 1017.2
20240416234128 60 79 1.0 5.0 0.00 0.00 0.00 45 1017.2
20240416233621 60 50 2.0 9.0 0.00 0.00 0.00 45 1017.2
20240416233115 61 79 2.0 9.0 0.00 0.00 0.00 44 1017.0
20240416232112 61 347 3.0 6.0 0.00 0.00 0.00 45 1017.0
20240416231835 61 51 4.0 10.0 0.00 0.00 0.00 43 1017.1
20240416231109 61 53 3.0 10.0 0.00 0.00 0.00 44 1017.1
20240416230823 62 56 2.0 7.0 0.00 0.00 0.00 43 1017.2
20240416230101 62 51 3.0 9.0 0.00 0.00 0.00 43 1017.3
20240416225602 62 96 3.0 9.0 0.00 0.00 0.00 43 1017.3
20240416225057 62 51 2.0 9.0 0.00 0.00 0.00 43 1017.5
20240416224817 62 77 3.0 9.0 0.00 0.00 0.00 42 1017.7
20240416224052 62 54 3.0 7.0 0.00 0.00 0.00 42 1017.6
20240416223820 62 52 2.0 7.0 0.00 0.00 0.00 42 1017.7
20240416223050 62 355 2.0 7.0 0.00 0.00 0.00 44 1017.6
20240416222547 61 51 2.0 8.0 0.00 0.00 0.00 43 1017.7
20240416222305 61 69 2.0 8.0 0.00 0.00 0.00 44 1017.9
20240416221540 61 25 1.0 6.0 0.00 0.00 0.00 43 1018.1
20240416221308 61 53 2.0 8.0 0.00 0.00 0.00 43 1018.2
20240416220532 61 69 2.0 8.0 0.00 0.00 0.00 42 1018.3
20240416220030 62 46 2.0 10.0 0.00 0.00 0.00 41 1018.2
20240416215523 63 51 2.0 10.0 0.00 0.00 0.00 42 1018.3
20240416215018 63 32 2.0 9.0 0.00 0.00 0.00 43 1018.3
20240416214512 63 54 3.0 9.0 0.00 0.00 0.00 40 1018.4
20240416214008 64 21 3.0 9.0 0.00 0.00 0.00 43 1018.4
20240416213509 64 54 2.0 9.0 0.00 0.00 0.00 40 1018.7
20240416213007 64 5 2.0 7.0 0.00 0.00 0.00 42 1018.7
20240416212503 64 344 3.0 11.0 0.00 0.00 0.00 41 1018.5
20240416212001 64 345 5.0 11.0 0.00 0.00 0.00 41 1018.5
20240416211714 64 44 4.0 10.0 0.00 0.00 0.00 42 1018.4
20240416211218 65 46 3.0 10.0 0.00 0.00 0.00 40 1018.5
20240416210451 65 46 3.0 7.0 0.00 0.00 0.00 41 1018.5
20240416205948 64 13 4.0 10.0 0.00 0.00 0.00 43 1018.5
20240416205447 63 73 4.0 10.0 0.00 0.00 0.00 41 1018.8
20240416204942 64 71 4.0 10.0 0.00 0.00 0.00 43 1018.8
20240416204438 64 83 4.0 11.0 0.00 0.00 0.00 42 1018.8
20240416203936 64 62 3.0 11.0 0.00 0.00 0.00 42 1018.9
20240416203433 64 346 2.0 7.0 0.00 0.00 0.00 45 1018.9
20240416202927 64 342 2.0 11.0 0.00 0.00 0.00 43 1019.1
20240416202655 63 53 3.0 11.0 0.00 0.00 0.00 44 1019.3
20240416201925 64 40 1.0 11.0 0.00 0.00 0.00 40 1019.3
20240416201424 63 13 1.0 7.0 0.00 0.00 0.00 47 1019.4
20240416201148 63 310 1.0 7.0 0.00 0.00 0.00 44 1019.5
20240416200421 62 18 3.0 7.0 0.00 0.00 0.00 45 1019.5
20240416195920 62 22 4.0 11.0 0.00 0.00 0.00 45 1019.5
20240416195638 62 68 4.0 11.0 0.00 0.00 0.00 46 1019.5
20240416194913 62 50 3.0 11.0 0.00 0.00 0.00 43 1019.6
20240416194409 62 108 1.0 7.0 0.00 0.00 0.00 46 1019.7
20240416193910 62 319 2.0 7.0 0.00 0.00 0.00 43 1020.0
20240416193402 62 20 3.0 10.0 0.00 0.00 0.00 45 1020.0
20240416192902 62 45 3.0 10.0 0.00 0.00 0.00 43 1020.2
20240416191856 63 43 2.0 9.0 0.00 0.00 0.00 43 1020.2
20240416191353 63 19 3.0 9.0 0.00 0.00 0.00 45 1020.2
20240416190850 63 23 3.0 9.0 0.00 0.00 0.00 45 1020.2
20240416190621 63 329 2.0 8.0 0.00 0.00 0.00 44 1020.3
20240416185851 63 0 3.0 10.0 0.00 0.00 0.00 45 1020.2